SCP
0 0 0 0 0 0 0 0 0 0 0 0 0 0 0 0 0 0 0 0 0 0 0 0 0 1 1 1 1 1 1 1 1 0 0 0 0 0 0 0 0 0 0 0 0 0 0 0 0
0 0 0 0 0 0 0 0 0 0 0 0 0 0 0 0 0 0 0 0 0 0 0 0 0 1 1 1 1 1 1 1 1 0 0 0 0 0 0 0 0 0 0 0 0 0 0 0 0
0 0 0 0 0 0 0 0 0 0 0 0 0 0 0 0 0 0 0 0 0 0 0 0 1 1 1 1 1 1 1 1 1 0 0 0 0 0 0 0 0 0 0 0 0 0 0 0 0
0 0 0 0 0 0 0 0 0 0 0 0 0 0 0 0 0 0 0 0 0 0 0 0 1 1 1 1 1 1 1 0 0 0 0 0 0 0 0 0 0 0 0 0 0 0 0 0 0
0 0 0 0 0 0 0 0 0 0 0 0 0 0 0 0 0 0 0 0 0 0 0 0 0 1 1 1 1 1 1 0 0 0 0 0 0 0 0 0 0 0 0 0 0 0 0 0 0
0 0 0 0 0 0 0 0 0 0 0 0 0 0 0 0 0 0 0 0 0 0 0 0 0 0 1 1 1 1 1 1 0 0 0 0 0 0 0 0 0 0 0 0 0 0 0 0 0
0 0 0 0 0 0 0 0 0 0 0 0 0 0 0 0 0 0 0 0 0 0 0 0 0 0 0 0 0 0 0 0 0 0 0 0 0 0 0 0 0 0 0 0 0 0 0 0 0
0 0 0 0 0 0 0 0 0 0 0 0 0 0 0 0 1 1 1 0 0 0 0 0 0 0 0 0 0 0 0 0 0 0 0 0 0 0 0 0 0 0 0 0 0 0 0 0 0
0 0 0 0 0 0 0 0 0 0 0 0 0 0 0 1 1 1 1 1 0 0 0 0 0 0 0 0 0 0 0 0 0 0 0 0 0 0 0 0 0 0 0 0 0 0 0 0 0
0 0 0 0 0 0 0 0 0 0 0 0 0 0 0 0 1 1 1 1 1 0 0 1 1 1 1 0 0 0 0 0 0 0 0 0 0 0 0 0 0 0 0 0 0 0 0 0 0
0 0 0 0 0 0 0 0 0 0 0 0 0 0 0 0 0 1 1 1 1 1 1 1 1 1 1 1 1 0 0 0 0 0 0 0 0 0 0 0 0 0 0 0 0 0 0 0 0
0 0 0 0 0 0 0 0 0 0 0 0 0 0 0 0 0 0 0 0 0 1 1 1 1 1 1 1 1 1 1 1 0 0 0 0 0 0 0 0 0 0 0 0 0 0 0 0 0
0 0 0 0 0 0 0 0 0 0 0 0 0 0 0 0 0 0 0 0 0 0 0 1 1 1 1 1 1 1 1 1 1 0 0 0 0 0 0 0 0 0 0 0 0 0 0 0 0
0 0 0 0 0 0 0 0 0 0 0 0 0 0 0 0 0 0 0 0 0 0 0 1 1 1 1 1 1 1 1 1 1 1 0 0 0 0 0 0 0 0 0 0 0 0 0 0 0
0 0 0 0 0 0 0 0 0 0 0 0 0 0 0 0 0 0 0 0 0 0 0 0 1 1 1 1 1 1 1 1 1 1 1 0 0 0 0 0 0 0 0 0 0 0 0 0 0
0 0 0 0 0 0 0 0 0 0 0 0 0 0 0 0 0 0 0 0 0 0 0 0 0 1 1 1 1 1 1 1 1 1 1 1 0 0 0 0 0 0 0 0 0 0 0 0 0
0 0 0 0 0 0 0 0 0 0 0 0 0 0 0 0 0 0 0 0 0 0 0 0 0 0 0 1 1 1 1 1 1 1 1 0 0 0 0 0 0 0 0 0 0 0 0 0 0
0 0 0 0 0 0 0 0 0 0 0 0 0 0 0 0 0 0 0 0 0 0 0 0 0 0 0 1 1 2 2 1 1 1 1 0 0 0 0 0 0 0 0 0 0 0 0 0 0
0 0 0 0 0 0 0 0 0 0 0 0 0 0 0 0 0 0 0 0 0 0 0 0 0 0 0 0 1 2 2 2 2 1 1 0 0 0 0 0 0 0 0 0 0 0 0 0 0
0 0 0 0 0 0 0 0 0 0 0 0 0 0 0 0 0 0 0 0 0 0 0 0 0 0 0 0 1 2 2 2 2 1 1 1 0 0 0 0 0 1 0 0 0 0 0 0 0
0 0 0 0 0 0 0 0 0 0 0 0 0 0 0 0 0 0 0 0 0 0 0 0 0 0 0 0 0 1 2 3 2 2 1 1 1 0 0 0 1 1 1 0 0 0 0 0 0
0 0 0 0 0 0 0 0 0 0 0 0 0 0 0 0 0 0 0 0 0 0 0 0 0 0 0 0 0 1 2 3 3 2 2 1 1 1 1 1 1 1 1 1 0 0 0 0 0
0 0 0 0 0 0 0 0 0 0 0 0 0 0 0 0 0 0 0 0 0 0 0 0 0 0 0 0 0 1 2 3 3 3 2 1 1 1 1 1 1 1 1 1 1 0 0 0 0
0 0 0 0 0 0 0 0 0 0 0 0 0 0 0 0 0 0 0 0 0 0 0 0 0 0 0 0 0 1 2 2 2 2 2 1 1 1 1 1 1 1 1 1 1 1 0 0 0
0 0 0 0 0 0 0 0 0 0 0 0 0 0 0 0 0 0 0 0 0 0 0 0 0 0 0 0 0 1 1 1 1 1 1 1 1 1 1 1 1 1 1 1 1 1 1 0 0
0 0 0 0 0 0 0 0 0 0 0 0 0 0 0 0 0 0 0 0 0 0 0 0 1 0 0 0 0 0 0 0 1 1 1 1 1 1 1 1 1 1 1 1 1 1 1 1 1
0 0 0 0 0 0 0 0 0 0 0 0 0 0 0 0 0 0 0 0 0 0 0 1 1 1 0 0 0 0 0 1 1 1 1 1 1 1 1 1 1 1 1 1 1 1 1 1 1
0 0 0 0 0 0 0 0 0 0 0 0 0 0 0 0 0 0 0 0 0 0 0 0 1 1 0 0 1 1 1 1 1 2 2 1 1 1 0 0 0 0 1 1 1 1 1 1 1
0 0 0 0 0 0 0 0 0 0 0 0 0 0 0 0 0 0 0 0 0 0 0 0 0 0 0 0 1 1 1 1 1 2 2 2 1 0 0 0 0 0 0 0 1 1 1 0 0
0 0 0 0 0 0 0 0 0 0 0 0 0 0 0 0 0 0 0 0 0 0 0 0 0 0 0 0 0 1 1 1 2 2 2 2 1 0 0 0 0 0 0 0 0 0 0 0 0
Wind_Speed
7 3 3 3 4 3 2 2 1 1 2 3 2 1 1 3 3 5 5 8 11 14 14 15 13 14 14 13 12 12 11 11 11 11 11 11 11 10 10 9 9 9 10 10 10 10 10 9 9
5 3 3 3 4 5 4 2 2 1 3 3 3 2 3 4 5 4 4 8 12 14 14 14 13 13 13 13 12 11 11 11 11 10 10 10 10 9 9 9 8 8 8 9 9 8 8 8 8
3 3 3 3 3 4 3 3 2 3 3 2 3 3 3 4 4 3 4 10 12 13 12 13 12 13 13 13 12 11 11 11 10 10 9 9 9 8 8 7 7 7 7 8 8 8 7 7 6
2 2 2 4 5 2 1 3 2 4 4 2 2 5 5 5 4 3 7 11 13 12 12 13 11 12 13 12 12 11 10 10 10 9 8 8 8 8 7 7 7 6 6 6 6 7 6 5 5
2 2 4 5 5 2 1 1 1 2 2 3 2 4 5 5 5 5 8 10 12 11 11 12 10 10 11 11 11 11 10 9 9 8 8 7 7 7 6 6 6 6 5 5 5 5 5 4 4
2 3 6 8 7 3 1 1 2 1 2 3 2 4 5 5 5 6 7 9 10 10 10 11 9 8 9 9 9 9 9 8 8 7 7 7 7 6 6 5 5 4 4 4 4 4 4 3 3
3 4 6 7 6 4 0 0 1 1 2 2 1 3 5 5 4 5 7 7 8 8 8 8 9 9 8 7 7 7 7 7 7 6 6 5 5 5 5 4 4 3 4 3 3 3 2 2 2
2 3 5 6 7 4 1 1 2 2 2 4 3 2 4 3 4 6 7 6 6 6 6 6 7 8 8 8 7 6 6 6 6 6 6 5 5 5 4 3 3 2 2 2 2 2 1 1 1
2 5 7 5 5 2 2 2 3 3 4 5 5 6 5 5 6 7 6 5 5 4 4 4 5 5 6 6 6 6 6 5 6 6 6 5 5 4 4 3 2 1 1 1 1 1 0 1 1
3 6 6 1 0 2 3 3 3 2 4 4 4 7 6 6 7 7 6 5 4 4 4 3 4 4 4 4 5 4 4 5 5 4 5 4 3 2 2 3 2 1 1 1 1 1 2 3 2
2 4 3 2 2 2 2 4 4 1 3 4 3 3 4 5 5 5 4 4 4 3 3 3 3 3 3 3 3 2 2 3 4 4 5 4 3 2 3 2 3 3 3 3 2 3 3 2 2
2 2 2 1 2 2 2 2 4 5 5 6 4 4 5 5 4 3 2 2 2 3 3 2 3 3 3 3 3 3 2 2 2 3 4 3 3 3 3 2 2 2 2 2 2 2 3 3 3
3 3 3 4 5 4 5 4 4 5 6 5 6 6 6 4 3 2 1 1 1 1 2 3 2 3 3 3 2 2 2 2 2 2 2 3 3 3 3 2 2 3 3 3 3 3 3 3 3
4 5 4 4 3 3 5 4 3 5 5 5 7 6 5 5 4 3 2 2 1 1 2 2 3 3 3 3 2 2 2 2 2 2 2 3 3 3 3 3 3 3 3 3 3 4 4 3 3
5 5 4 3 1 1 2 4 3 5 4 5 5 5 6 5 5 4 3 2 1 1 1 1 2 3 3 3 3 2 2 2 2 2 2 3 3 3 3 3 3 3 3 4 4 4 3 3 3
4 4 3 2 3 1 2 2 4 5 3 4 4 4 5 5 5 5 5 4 3 2 2 1 1 2 2 3 3 2 2 2 2 1 2 2 3 3 3 3 3 3 3 3 3 3 3 3 4
4 4 4 2 4 2 2 2 3 5 4 4 4 4 5 5 7 6 6 5 4 4 3 3 2 1 2 2 2 2 1 1 0 0 1 2 2 3 3 3 3 3 3 3 3 3 4 4 4
5 4 4 3 3 4 3 2 3 5 5 5 5 5 5 6 6 6 6 5 5 4 4 3 3 3 2 1 2 1 1 1 0 0 1 1 2 2 2 2 3 3 3 3 3 4 4 4 4
6 5 4 2 2 3 3 2 2 4 4 5 5 5 5 5 6 6 6 6 6 6 5 5 4 4 3 1 1 2 1 1 0 0 1 1 1 2 2 2 3 2 2 3 3 3 4 3 3
6 6 4 3 3 2 3 1 2 4 4 4 4 4 5 5 6 7 7 7 6 6 6 5 5 4 3 2 1 1 1 1 1 0 0 1 1 1 2 2 2 2 2 3 2 3 3 3 2
3 4 4 4 2 2 1 1 1 2 3 4 4 4 5 5 6 6 7 7 6 6 6 5 5 5 4 3 2 1 0 0 0 1 1 1 2 2 2 2 2 2 2 2 2 2 2 3 3
2 1 4 5 4 2 3 3 2 1 2 3 4 5 5 6 6 6 7 7 7 6 6 5 5 4 4 3 2 1 1 1 2 2 1 1 1 2 2 3 2 2 2 3 3 3 3 3 3
1 1 3 2 1 2 2 3 2 2 1 1 3 4 5 5 6 6 6 6 7 7 6 6 5 5 5 3 2 1 1 2 2 2 2 2 2 2 2 3 2 2 2 3 3 3 3 2 3
2 3 3 1 1 2 2 4 2 2 2 1 2 3 5 5 5 6 6 6 6 7 6 6 5 5 5 4 3 2 2 2 3 3 3 2 2 2 3 3 3 3 3 3 3 3 3 3 3
1 3 2 2 2 2 1 4 2 1 1 1 1 3 4 4 5 6 7 7 8 8 7 6 6 6 6 5 4 3 3 3 3 3 3 3 3 3 4 4 3 3 3 3 3 3 3 3 3
0 1 1 3 3 1 1 4 1 2 2 2 2 3 4 5 6 6 7 7 7 7 7 7 6 6 5 5 4 4 3 2 2 3 3 3 3 3 4 4 4 4 4 4 3 2 3 3 3
1 1 1 1 1 2 3 2 3 1 1 2 2 3 4 5 6 6 6 6 7 7 7 6 6 6 6 5 4 4 4 3 3 4 3 3 3 3 4 4 4 4 4 4 4 3 3 3 3
2 1 1 2 3 3 3 4 3 3 2 0 1 2 3 4 5 5 5 6 6 6 6 6 5 5 5 5 5 4 5 4 4 3 4 4 4 4 4 4 4 4 4 4 4 3 3 3 4
1 1 0 0 1 3 3 2 0 3 3 2 0 1 2 3 4 4 5 5 5 5 6 6 6 6 6 6 5 5 4 4 4 4 4 4 4 4 4 4 4 4 4 4 3 3 4 4 4
1 1 1 2 2 3 3 2 2 1 2 2 1 2 2 3 3 4 4 5 5 6 6 6 6 6 6 6 5 5 5 5 4 4 5 5 4 4 4 4 4 4 4 4 3 4 4 4 5
Wind_Direction
323 304 256 243 229 210 186 142 157 135 114 66 75 106 91 57 14 47 71 146 145 150 151 150 146 143 141 139 137 137 135 131 129 129 125 122 119 116 112 106 102 102 101 100 98 96 94 91 87
315 293 248 246 236 201 168 156 162 84 74 106 99 104 105 78 42 72 119 146 150 150 152 152 142 142 141 141 141 142 140 136 133 132 130 128 124 120 116 110 105 104 104 103 101 99 97 94 89
294 277 265 229 221 215 154 136 108 80 104 136 109 66 49 50 53 87 119 149 150 149 152 142 143 144 144 144 144 142 140 140 139 137 135 134 129 124 119 115 110 106 105 105 104 102 98 94 90
276 220 225 230 204 212 161 103 101 127 122 91 118 102 80 41 23 75 133 151 149 150 151 144 146 146 147 147 148 146 144 144 145 142 141 137 131 126 123 119 115 110 108 106 103 100 97 94 90
247 231 210 214 214 192 211 357 197 159 124 104 125 106 88 45 44 104 139 150 150 150 152 150 147 147 149 150 149 150 149 148 150 149 146 139 134 131 128 125 121 116 115 110 104 99 95 92 84
190 214 217 213 205 194 202 272 206 147 113 101 118 114 87 52 67 112 136 148 148 149 152 151 144 145 151 153 151 151 151 149 149 146 142 138 134 133 128 127 127 124 123 120 115 103 95 85 74
209 210 225 219 208 207 201 232 222 164 115 67 29 118 104 69 69 118 129 136 140 144 151 156 162 160 154 151 150 150 148 145 143 141 135 130 131 129 122 120 129 135 135 133 127 110 102 89 74
258 210 207 210 209 203 42 114 42 2 69 54 27 70 91 80 103 116 116 121 130 140 150 158 165 169 169 164 151 148 144 145 142 138 132 129 131 134 131 149 133 138 145 144 135 120 120 103 78
227 215 211 205 206 164 59 101 55 43 91 81 57 37 37 109 123 116 113 115 125 135 147 162 167 170 169 168 156 159 152 151 154 151 142 160 176 174 170 159 128 131 120 135 153 164 171 216 182
208 215 213 183 191 108 74 57 41 99 91 75 61 41 65 107 120 122 127 133 140 149 154 164 174 173 172 166 170 179 181 176 186 178 175 186 190 187 197 146 166 167 174 202 217 224 221 247 246
189 204 155 118 72 67 84 55 34 77 55 19 1 39 84 104 111 122 135 150 160 159 158 174 181 183 182 175 177 181 189 191 197 195 192 193 194 194 208 197 189 202 212 224 215 227 248 263 280
128 94 108 92 52 51 62 85 62 43 20 2 14 94 110 111 118 125 131 142 158 162 169 180 189 186 194 188 187 188 194 202 206 208 212 211 212 214 218 226 227 226 229 241 247 249 260 266 271
123 105 77 69 75 73 81 78 71 35 7 23 61 83 89 91 88 89 99 126 145 181 190 188 189 197 194 194 197 197 200 216 215 214 222 232 236 234 228 233 236 240 241 242 249 255 260 265 271
119 107 86 62 77 68 82 59 42 14 12 49 65 70 69 68 62 55 48 48 1 255 231 200 192 201 201 196 203 206 211 217 226 228 237 236 248 254 240 236 240 247 250 252 251 260 266 269 272
122 115 90 36 19 104 105 56 22 359 16 53 57 61 57 48 43 33 12 1 331 298 271 235 210 210 212 210 207 210 214 218 228 239 249 253 257 262 261 254 250 254 254 250 250 252 260 270 271
132 149 168 51 7 358 188 187 27 9 34 52 49 50 52 43 32 22 14 10 2 355 346 331 283 227 225 219 215 214 214 215 228 243 260 265 268 271 263 264 265 273 270 259 254 252 255 261 267
155 176 181 137 24 30 133 157 27 16 37 44 41 40 43 36 26 18 13 12 13 11 7 2 349 295 244 225 214 209 206 200 238 287 309 301 288 283 272 270 276 279 269 265 266 264 263 267 271
161 158 161 148 43 57 102 117 36 18 33 38 38 37 38 35 22 17 17 16 20 20 20 17 8 351 310 235 202 180 166 177 193 255 318 309 296 293 284 289 296 292 278 274 272 270 271 269 271
140 140 134 107 43 62 101 85 26 19 31 35 34 35 33 32 24 22 23 23 26 25 22 19 13 3 357 322 224 206 210 208 196 328 346 314 314 305 289 291 292 297 286 290 288 277 276 274 277
134 139 125 97 69 73 108 71 21 30 33 28 30 30 26 23 21 22 22 27 25 22 16 16 13 9 2 346 310 248 222 207 190 156 325 325 317 312 301 297 296 301 295 297 302 305 290 279 262
121 155 153 142 109 140 171 187 170 67 50 43 35 27 23 19 13 16 19 20 19 16 7 4 5 7 5 356 355 354 264 230 269 301 293 300 300 302 303 294 293 297 285 286 288 286 289 290 278
160 139 153 159 167 161 237 220 203 170 36 30 29 27 21 19 18 17 15 15 14 7 1 4 5 7 8 5 8 18 12 315 293 296 297 310 306 311 311 300 293 290 285 288 285 280 279 280 284
104 102 141 167 168 168 222 231 204 184 249 353 16 19 17 17 18 18 15 12 10 7 5 5 10 14 14 13 5 357 347 322 321 321 319 322 323 323 327 314 301 293 286 289 292 288 278 274 277
119 114 102 119 198 215 219 230 231 201 243 254 1 19 18 15 15 15 14 13 12 11 10 9 13 15 11 13 12 7 352 347 353 352 347 337 337 340 348 340 329 317 306 296 292 287 280 276 280
82 153 147 169 205 218 173 225 238 38 329 289 348 5 15 16 12 9 9 9 7 7 7 6 12 13 9 13 18 12 357 345 342 337 332 330 331 337 339 342 341 337 335 328 319 309 308 297 293
136 244 201 201 205 192 216 231 205 44 45 46 38 27 19 16 14 8 5 4 1 2 3 4 6 6 4 8 8 7 5 349 339 338 332 322 322 332 336 336 334 334 336 335 330 316 307 309 298
114 93 347 87 91 228 223 245 253 187 75 63 44 29 18 9 6 3 4 3 0 359 360 360 360 1 359 1 360 359 359 355 349 350 340 335 341 339 342 338 332 335 338 336 330 326 330 330 324
12 68 190 190 195 228 235 242 233 224 242 310 18 5 356 354 358 359 4 0 358 356 356 358 359 358 355 355 356 355 350 349 347 349 346 344 344 345 340 341 337 334 337 340 337 333 337 338 334
44 98 57 164 266 239 242 241 157 214 210 219 264 342 337 345 352 355 355 353 356 358 357 360 0 358 355 353 352 349 345 347 347 347 343 340 337 335 334 331 332 333 333 334 333 331 330 330 325
319 313 251 239 226 245 257 259 102 191 184 195 270 336 340 342 349 351 350 354 356 358 358 357 357 358 353 347 346 347 345 345 346 345 340 337 334 334 333 329 328 327 327 326 322 319 319 316 312